Location: *
(30.4476°N, 114.3798°E)
Time: 01:16:08
(UTC+00:00)

Cosmos 2184 Rocket - Pass Details

Date: 09 April 2020
Orbit: 958 x 1003 km, 82.9° (Epoch: 31 May)

Event Time Altitude Azimuth Distance (km) Brightness Sun altitude
Rises 12:05:48 0° 351° (N) 3,685 7.4 -17.3°
Reaches altitude 10° 12:08:20 10° 350° (N) 2,728 6.7 -17.8°
Maximum altitude 12:14:33 73° 267° (W) 1,009 4.2 -19.1°
Drops below altitude 10° 12:20:40 10° 183° (S) 2,688 6.1 -20.3°
Sets 12:23:09 0° 181° (S) 3,627 6.8 -20.8°
